User: anonymous   Login
Location: Unspecified
(0.0000°N, 0.0000°E)
Time: 23:39:09
(UTC+02:00)
Language:

Cosmos 1898 Rocket - Orbit

View from above orbital plane
View from above orbital plane
View from above satellite
View from above satellite

Ground track
Ground track

The orbit data is extracted from the following two-line orbital elements,

1 18586U 87098B   16119.95003319 +.00000093 +00000-0 +40382-4 0  9991
2 18586 074.0070 338.0711 0020372 134.5722 325.9250 14.36715435487564
Epoch (UTC): 28 April 2016 22:48:02
Eccentricity: 0.0020372
inclination: 74.0070°
perigee height: 755 km
apogee height: 784 km
right ascension of ascending node: 338.0711°
argument of perigee: 134.5722°
revolutions per day: 14.36715435
mean anomaly at epoch: 325.9250°
orbit number at epoch: 48756

The dashed part of the orbit path shows where the satellite is in the earth's shadow,  

DLR